Mobile - Dauphin Island Weather Center

Moon Phase Calendar



Online Cameras

 


      

Current Conditions in Point Clear
4/13/2024 10:45:26 PM

62°F
Feels Like 61
Clear
Humidity
79%
Pressure
30.24"
Wind
3.4 mph (S)
Dew Point
55°F
UV Index
0/10 (Low)
Visibility
6 mi

Hourly Forecast

Date & Time Sat, Apr 13
10:00 PM
Sat, Apr 13
11:00 PM
Sun, Apr 14
12:00 AM
Sun, Apr 14
1:00 AM
Sun, Apr 14
2:00 AM
Sun, Apr 14
3:00 AM
Sun, Apr 14
4:00 AM
Sun, Apr 14
5:00 AM
Sun, Apr 14
6:00 AM
Sun, Apr 14
7:00 AM
Sun, Apr 14
8:00 AM
Sun, Apr 14
9:00 AM
Sun, Apr 14
10:00 AM
Sun, Apr 14
11:00 AM
Sun, Apr 14
12:00 PM
Sun, Apr 14
1:00 PM
Sun, Apr 14
2:00 PM
Sun, Apr 14
3:00 PM
Sun, Apr 14
4:00 PM
Sun, Apr 14
5:00 PM
Sun, Apr 14
6:00 PM
Sun, Apr 14
7:00 PM
Sun, Apr 14
8:00 PM
Sun, Apr 14
9:00 PM
Sun, Apr 14
10:00 PM
Sun, Apr 14
11:00 PM
Mon, Apr 15
12:00 AM
Mon, Apr 15
1:00 AM
Mon, Apr 15
2:00 AM
Mon, Apr 15
3:00 AM
Mon, Apr 15
4:00 AM
Mon, Apr 15
5:00 AM
Mon, Apr 15
6:00 AM
Mon, Apr 15
7:00 AM
Mon, Apr 15
8:00 AM
Mon, Apr 15
9:00 AM
Mon, Apr 15
10:00 AM
Mon, Apr 15
11:00 AM
Mon, Apr 15
12:00 PM
Mon, Apr 15
1:00 PM
Mon, Apr 15
2:00 PM
Mon, Apr 15
3:00 PM
Mon, Apr 15
4:00 PM
Mon, Apr 15
5:00 PM
Mon, Apr 15
6:00 PM
Mon, Apr 15
7:00 PM
Mon, Apr 15
8:00 PM
Mon, Apr 15
9:00 PM
Condition
Clear

Clear

Clear

Clear

Clear

Clear

Clear

Clear

Clear

Clear

Clear

Clear

Clear

Clear

Clouds

Clouds

Clouds

Clouds

Clouds

Clouds

Clouds

Clouds

Clouds

Clouds

Clear

Clear

Clear

Clear

Clouds

Clouds

Clouds

Clouds

Clouds

Clouds

Clouds

Clouds

Clouds

Clouds

Clouds

Clouds

Clouds

Clouds

Clouds

Clouds

Clouds

Clouds

Clouds

Clouds
Temperature 62°F62°F62°F63°F63°F64°F64°F64°F65°F65°F67°F69°F70°F71°F71°F71°F71°F71°F70°F70°F69°F68°F67°F67°F67°F67°F67°F67°F67°F67°F66°F66°F66°F67°F68°F70°F70°F71°F71°F71°F71°F71°F71°F71°F70°F69°F68°F68°F
Feels Like 62°F61°F62°F62°F63°F63°F64°F64°F64°F64°F66°F68°F69°F70°F70°F70°F70°F70°F70°F70°F69°F68°F67°F67°F67°F67°F67°F67°F67°F67°F67°F66°F66°F67°F69°F70°F71°F71°F71°F72°F72°F72°F72°F71°F71°F70°F69°F68°F
Cloudiness 1%0%0%1%0%0%0%1%2%2%7%10%10%10%11%11%18%14%41%56%65%71%22%11%7%7%7%7%88%51%36%27%42%48%83%49%35%28%24%26%57%78%72%73%74%78%100%76%
Visibility 6 mi6 mi6 mi6 mi6 mi6 mi6 mi6 mi6 mi6 mi6 mi6 mi6 mi6 mi6 mi6 mi6 mi6 mi6 mi6 mi6 mi6 mi6 mi6 mi6 mi6 mi6 mi6 mi6 mi6 mi6 mi6 mi6 mi6 mi6 mi6 mi6 mi6 mi6 mi6 mi6 mi6 mi6 mi6 mi6 mi6 mi6 mi6 mi
Precipitation 0%0%0%0%0%0%0%0%0%0%0%0%0%0%0%0%0%0%0%0%0%0%0%0%0%0%0%0%0%0%0%0%0%0%0%0%0%0%0%0%0%0%0%0%0%0%0%0%
Humidity 77%79%77%75%73%71%69%69%68%67%63%58%55%54%54%55%57%60%65%65%72%76%79%80%81%82%83%83%82%83%83%84%84%83%79%74%74%76%77%79%79%80%80%81%82%85%87%87%
Dew Point 55°F55°F55°F55°F55°F54°F54°F54°F53°F54°F54°F53°F53°F53°F53°F54°F55°F56°F58°F58°F60°F61°F60°F60°F61°F61°F61°F61°F61°F61°F61°F61°F61°F61°F61°F61°F62°F63°F63°F64°F65°F65°F65°F65°F65°F65°F64°F64°F
Pressure 30.24"30.24"30.24"30.24"30.21"30.18"30.18"30.18"30.18"30.21"30.24"30.24"30.24"30.24"30.24"30.21"30.18"30.18"30.15"30.15"30.12"30.12"30.12"30.15"30.12"30.12"30.12"30.09"30.09"30.06"30.06"30.06"30.09"30.09"30.12"30.12"30.15"30.15"30.15"30.12"30.09"30.09"30.09"30.06"30.06"30.06"30.09"30.09"
Wind Speed 7.8 mph6.9 mph6.4 mph6.3 mph5.6 mph4.5 mph3.4 mph1.6 mph1.5 mph1.9 mph3.2 mph4.6 mph6.4 mph7.9 mph9 mph8.8 mph10.9 mph10.5 mph10.5 mph7.9 mph6.5 mph5.2 mph7.7 mph9.2 mph9.6 mph8 mph7.7 mph7.7 mph8.1 mph8.7 mph8.1 mph6.6 mph6.2 mph5.8 mph4.4 mph6.6 mph6.8 mph8.5 mph8.7 mph9.3 mph9.8 mph9.5 mph9.7 mph10.1 mph10.3 mph9.2 mph9.2 mph9.3 mph
Wind
Direction
224°
SW
236°
SW
241°
WSW
238°
WSW
231°
SW
234°
SW
230°
SW
215°
SW
134°
SE
140°
SE
149°
SSE
164°
SSE
159°
SSE
169°
S
180°
S
183°
S
182°
S
190°
S
189°
S
188°
S
171°
S
161°
SSE
154°
SSE
173°
S
180°
S
175°
S
174°
S
177°
S
179°
S
186°
S
200°
SSW
195°
SSW
197°
SSW
178°
S
170°
S
173°
S
170°
S
174°
S
180°
S
174°
S
176°
S
176°
S
168°
SSE
169°
S
161°
SSE
155°
SSE
154°
SSE
156°
SSE

Daily Forecast

Date High Low Precip. Humidity
Today
Apr 13

Clear
71 °F
61 °F
0%
48%
Sunday
Apr 14

Clouds
71 °F
62 °F
0%
54%
Monday
Apr 15

Clouds
71 °F
66 °F
0%
77%
Tuesday
Apr 16

Clouds
72 °F
68 °F
0%
78%
Wednesday
Apr 17

Clouds
72 °F
69 °F
0%
87%
Thursday
Apr 18

Rain
74 °F
69 °F
92%
83%
Friday
Apr 19

Clouds
74 °F
69 °F
2%
77%
Saturday
Apr 20

Clear
74 °F
69 °F
0%
71%
Sunday
Apr 21

Rain
74 °F
68 °F
100%
72%
Monday
Apr 22

Rain
72 °F
62 °F
100%
65%
Tuesday
Apr 23

Clouds
73 °F
68 °F
0%
74%
Wednesday
Apr 24

Clear
74 °F
70 °F
21%
79%
Thursday
Apr 25

Rain
75 °F
69 °F
71%
85%
Friday
Apr 26

Rain
74 °F
66 °F
100%
96%
Saturday
Apr 27

Clouds
77 °F
70 °F
80%
80%
Sunday
Apr 28

Clouds
74 °F
63 °F
0%
65%

Temperature 8-14 Day Outlook



Precipitation 8-14 Day Outlook




Quick Links
Mobile - Dauphin Island News
Mobile - Dauphin Island Photos
Mobile - Dauphin Island Videos




About Us
Contact Us
Site Map
Search Site
Advertise With Us
   
Mobile.USGulf.info
THE MOBILE - DAUPHIN ISLAND WEBSITE

Copyright 2024, Coastal Town
Privacy    |    Legal